Weather History for FABL - January, 2013

Change the Weather History Date:

Saturday, January 26, 2013

  Actual Average Record
Temperature  
Mean Temperature 75 °F -  
Max Temperature 95 °F 83 °F 91 °F (2014)
Min Temperature 55 °F 56 °F 63 °F (2014)
Cooling Degree Days 10    
Growing Degree Days 25 (Base 50)    
Moisture  
Dew Point 46 °F    
Average Humidity 40    
Maximum Humidity 82    
Minimum Humidity 6    
Precipitation  
Precipitation 0.00 in 0.14 in - ()
Sea Level Pressure  
Sea Level Pressure 30.09 in    
Wind  
Wind Speed 4 mph ()    
Max Wind Speed 14 mph    
Max Gust Speed 25 mph    
Visibility 11.3 miles    
Events      
Averages and records for this station are not official NWS values.
T = Trace of Precipitation, MM = Missing Value Source: Averaged Metar Reports

Daily Weather History Graph

Daily Weather History Graph

Search for Another Location

Airport or City:

Trip Planner

Search our weather history database for the weather conditions in past years. The results will help you decide how hot, cold, wet, or windy it might be!

Date:

Astronomy

Jan. 26, 2013 Rise Set
Actual Time 5:39 AM SAST 7:14 PM SAST
Civil Twilight 5:13 AM SAST 7:40 PM SAST
Nautical Twilight 4:43 AM SAST 8:11 PM SAST
Astronomical Twilight 4:10 AM SAST 8:43 PM SAST
Moon 6:34 PM SAST (1/26) 4:53 AM SAST (1/26)
Length of Visible Light 14h 26m
Length of Day
13h 34m
Waxing Gibbous, 99% of the Moon is Illuminated
Jan 26
Waxing Gibbous
Jan 27
Full
Feb 3
Last Quarter
Feb 10
New
Feb 17
First Quarter

Hourly Weather History & Observations

Time (SAST) Temp. Heat Index Dew Point Humidity Pressure Visibility Wind Dir Wind Speed Gust Speed Precip Events Conditions
12:00 AM 64.4 °F - 35.6 °F 34% 30.09 in - SSW 2.3 mph - N/A   Unknown
1:00 AM 64.4 °F - 48.2 °F 56% 30.09 in - South 5.8 mph - N/A   Unknown
2:00 AM 61 °F - 50 °F 59%  in - East 4.6 mph - -  
2:00 AM 60.8 °F - 50.0 °F 68% 30.12 in - East 3.5 mph - N/A   Unknown
3:00 AM 57.2 °F - 44.6 °F 63% 30.12 in - Calm Calm - N/A   Unknown
4:00 AM 55.4 °F - 46.4 °F 72% 30.12 in - Calm Calm - N/A   Unknown
5:00 AM 57 °F - 48 °F 64%  in 19 mi Calm Calm - -  
5:00 AM 57.2 °F - 48.2 °F 72% 30.12 in - NNE 1.2 mph - N/A   Clear
6:00 AM 57.2 °F - 51.8 °F 82% 30.12 in - Variable 2.3 mph - N/A   Clear
6:39 AM 64.4 °F - 55.4 °F 73% 30.15 in - SE 3.5 mph - N/A   Clear
7:00 AM 64.4 °F - 55.4 °F 73% 30.15 in - East 4.6 mph - N/A   Clear
8:00 AM 71 °F - 56 °F 50%  in 19 mi NNE 12.7 mph - -  
8:00 AM 69.8 °F - 55.4 °F 60% 30.15 in - NNE 11.5 mph - N/A   Clear
9:00 AM 75.2 °F - 57.2 °F 53% 30.15 in - NE 12.7 mph - N/A   Clear
9:52 AM 80.6 °F 81.1 °F 59.0 °F 48% 30.12 in - NNE 11.5 mph - N/A   Clear
10:00 AM 80.6 °F 81.1 °F 59.0 °F 48% 30.12 in - NNE 11.5 mph - N/A   Clear
11:00 AM 84 °F - 52 °F 23%  in 19 mi North 5.8 mph - -  
11:00 AM 84.2 °F - 51.8 °F 33% 30.12 in - North 4.6 mph - N/A   Clear
12:00 PM 87.8 °F - 48.2 °F 25% 30.09 in 6.2 mi Variable 8.1 mph - N/A   Partly Cloudy
1:00 PM 89.6 °F - 46.4 °F 22% 30.09 in 6.2 mi NNE 8.1 mph - N/A   Partly Cloudy
2:00 PM 92 °F - 39 °F 8%  in 19 mi WNW 6.9 mph - -   Scattered Clouds
2:00 PM 91.4 °F - 37.4 °F 15% 30.06 in 6.2 mi WNW 6.9 mph - N/A   Partly Cloudy
3:00 PM 93.2 °F - 44.6 °F 19% 30.04 in 6.2 mi West 9.2 mph - N/A   Partly Cloudy
4:00 PM 93.2 °F - 42.8 °F 17% 30.01 in 6.2 mi West 13.8 mph 25.3 mph N/A   Partly Cloudy
5:00 PM 94 °F - 34 °F 6%  in 19 mi WSW 8.1 mph - -   Scattered Clouds
5:00 PM 93.2 °F - 33.8 °F 12% 30.01 in 6.2 mi WSW 8.1 mph - N/A   Partly Cloudy
6:00 PM 91.4 °F - 41.0 °F 17% 30.01 in 6.2 mi WNW 5.8 mph - N/A   Partly Cloudy
7:00 PM 89.6 °F - 42.8 °F 20% 30.01 in 6.2 mi WNW 4.6 mph - N/A   Partly Cloudy
8:00 PM 84 °F - 32 °F 8%  in 19 mi SW 3.5 mph - -   Scattered Clouds
8:00 PM 82.4 °F - 32.0 °F 16% 30.04 in - SW 2.3 mph - N/A   Clear
9:00 PM 73.4 °F - 42.8 °F 33% 30.04 in 6.2 mi Calm Calm - N/A   Unknown
10:00 PM 68.0 °F - 41.0 °F 37% 30.06 in - SSE 1.2 mph - N/A   Unknown
11:00 PM 65 °F - 41 °F 30%  in - West 2.3 mph - -  
11:00 PM 64.4 °F - 41.0 °F 42% 30.06 in - West 1.2 mph - N/A   Unknown